Weather WX

World > North America > United States > Missouri

Corridon, Missouri Regional Weather

Lat: 37.38N, Lon: 91.07W
Wx Zone: MOZ099
Warning FLW WEATHER ALERT - (More Info. Click Here) Warning
Feedback

Corridon, MO Regional Weather

Expires:201906250400;;033202
ASUS43 KLSX 250307
RWRMO 

WEATHER SUMMARY FOR MISSOURI
NATIONAL WEATHER SERVICE SPRINGFIELD MO
1000 PM CDT MON JUN 24 2019

NOTE: "FAIR" INDICATES FEW OR NO CLOUDS BELOW 12,000 FEET WITH NO
       SIGNIFICANT WEATHER AND/OR OBSTRUCTIONS TO VISIBILITY.
       CURRENT SKY AND/OR WEATHER CONDITIONS ARE NOT AVAILABLE FOR
       CHILLICOTHE AND FARMINGTON.


MOZ072>076-082>087-097>100-106>115-250400-
...SOUTH CENTRAL AND SOUTHEAST MISSOURI...
  
CITY           SKY/WX    TMP DP  RH WIND       PRES   REMARKS
CAPE GIRARDEAU FAIR      74  67  78 VRB6      29.88R                  
FARMINGTON     CLEAR     68  61  78 CALM      29.91R                  
POPLAR BLUFF   FAIR      74  69  85 SW5       29.89R                  
WEST PLAINS    CLEAR     66  60  81 W3        29.94R                  
                                       
$$
  

SKY/WX - Weather  TMP - Temperature  DP - Dew Point  RH - Relative Humidity
WIND - Wind Direction/Speed PRES - Barometric Pressure VSB - Visibility
WCI - Wind Chill Index E13G22 Wind - East Wind 13 mph/Gusts of 22 mph